GW1728 Weather Reports


Display with metric or nautical units.
time (UTC)temp
F
wind
direction
speed
MPH
gust
MPH
rain 1hr
in
rain 24hr
in
rain mn
in
humidity
%
barometer
mb
20260503005723 66 56 1.0 1.0 0.00 0.00 0.00 33 1016.4
20260503005220 66 47 3.0 3.0 0.00 0.00 0.00 34 1016.6
20260503004716 66 50 3.0 3.0 0.00 0.00 0.00 34 1016.6
20260503004215 66 24 3.0 5.0 0.00 0.00 0.00 34 1016.6
20260503003711 66 51 5.0 6.0 0.00 0.00 0.00 34 1016.7
20260503003208 66 358 2.0 3.0 0.00 0.00 0.00 33 1016.7
20260503002705 66 349 1.0 1.0 0.00 0.00 0.00 33 1016.8
20260503002202 66 11 3.0 3.0 0.00 0.00 0.00 34 1016.9
20260503001658 66 292 0.0 0.0 0.00 0.00 0.00 33 1016.9
20260503001154 67 356 4.0 5.0 0.00 0.00 0.00 33 1016.9
20260503000652 67 293 2.0 2.0 0.00 0.00 0.00 33 1016.9
20260503000149 67 231 0.0 0.0 0.00 0.00 0.00 33 1016.9
20260502235646 68 207 2.0 2.0 0.00 0.00 0.00 33 1017.1
20260502235144 68 65 0.0 1.0 0.00 0.00 0.00 32 1017.2
20260502234640 69 156 1.0 2.0 0.00 0.00 0.00 32 1017.2
20260502234137 68 167 0.0 0.0 0.00 0.00 0.00 32 1017.3
20260502233633 69 150 4.0 6.0 0.00 0.00 0.00 32 1017.2
20260502233130 69 251 0.0 1.0 0.00 0.00 0.00 31 1017.3
20260502232626 69 253 1.0 1.0 0.00 0.00 0.00 31 1017.5
20260502232124 69 233 3.0 3.0 0.00 0.00 0.00 31 1017.6
20260502231620 68 352 1.0 2.0 0.00 0.00 0.00 32 1017.7
20260502231118 68 120 1.0 2.0 0.00 0.00 0.00 33 1017.5
20260502230616 69 4 5.0 7.0 0.00 0.00 0.00 32 1017.7
20260502230114 68 168 0.0 0.0 0.00 0.00 0.00 32 1017.9
20260502225609 69 48 3.0 3.0 0.00 0.00 0.00 33 1017.8
20260502225107 69 97 3.0 3.0 0.00 0.00 0.00 32 1017.8
20260502224603 67 82 3.0 3.0 0.00 0.00 0.00 33 1017.7
20260502224100 67 287 1.0 2.0 0.00 0.00 0.00 33 1017.9
20260502223558 68 19 5.0 6.0 0.00 0.00 0.00 34 1018.0
20260502223056 68 38 8.0 9.0 0.00 0.00 0.00 34 1018.3
20260502222553 67 344 5.0 6.0 0.00 0.00 0.00 33 1018.2
20260502222049 67 323 2.0 3.0 0.00 0.00 0.00 33 1018.2
20260502221545 67 6 6.0 6.0 0.00 0.00 0.00 33 1018.3
20260502221043 67 8 6.0 6.0 0.00 0.00 0.00 34 1018.2
20260502220538 67 3 6.0 7.0 0.00 0.00 0.00 33 1018.6
20260502220035 67 7 7.0 13.0 0.00 0.00 0.00 33 1018.4
20260502215532 66 339 2.0 3.0 0.00 0.00 0.00 35 1018.8
20260502215029 66 302 0.0 0.0 0.00 0.00 0.00 34 1018.8
20260502214526 68 22 7.0 7.0 0.00 0.00 0.00 34 1018.8
20260502214024 67 357 4.0 6.0 0.00 0.00 0.00 35 1018.7
20260502213520 66 48 2.0 2.0 0.00 0.00 0.00 34 1018.7
20260502213018 66 9 5.0 6.0 0.00 0.00 0.00 36 1019.0
20260502212517 67 22 5.0 7.0 0.00 0.00 0.00 35 1019.0
20260502212014 67 315 5.0 6.0 0.00 0.00 0.00 34 1019.0
20260502211509 67 13 4.0 5.0 0.00 0.00 0.00 34 1019.4
20260502211007 67 348 4.0 6.0 0.00 0.00 0.00 34 1019.1
20260502210504 67 28 7.0 8.0 0.00 0.00 0.00 34 1019.0
20260502210001 66 20 7.0 7.0 0.00 0.00 0.00 35 1019.1
20260502205456 67 340 2.0 3.0 0.00 0.00 0.00 35 1019.1
20260502204954 68 24 5.0 7.0 0.00 0.00 0.00 34 1019.2
20260502204451 67 350 3.0 5.0 0.00 0.00 0.00 34 1019.4
20260502203949 66 47 6.0 6.0 0.00 0.00 0.00 34 1019.4
20260502203446 65 29 5.0 6.0 0.00 0.00 0.00 35 1019.6
20260502202942 65 30 6.0 7.0 0.00 0.00 0.00 36 1019.5
20260502202439 64 48 0.0 0.0 0.00 0.00 0.00 35 1019.5
20260502201937 65 46 6.0 7.0 0.00 0.00 0.00 34 1019.6
20260502201433 65 28 3.0 3.0 0.00 0.00 0.00 35 1019.7
20260502200930 65 346 2.0 2.0 0.00 0.00 0.00 35 1019.6
20260502200425 65 55 5.0 8.0 0.00 0.00 0.00 35 1019.7
20260502195923 66 326 5.0 6.0 0.00 0.00 0.00 34 1019.7
20260502195420 66 28 8.0 9.0 0.00 0.00 0.00 34 1019.9
20260502194916 66 316 1.0 1.0 0.00 0.00 0.00 34 1019.9
20260502194414 65 19 7.0 7.0 0.00 0.00 0.00 35 1019.9
20260502193909 65 7 2.0 3.0 0.00 0.00 0.00 35 1020.0
20260502193407 65 357 5.0 6.0 0.00 0.00 0.00 36 1020.0
20260502192902 66 35 7.0 9.0 0.00 0.00 0.00 34 1020.1
20260502192359 67 51 6.0 8.0 0.00 0.00 0.00 35 1020.0
20260502191856 66 304 1.0 3.0 0.00 0.00 0.00 35 1020.2
20260502191354 66 248 1.0 1.0 0.00 0.00 0.00 35 1020.1
20260502190851 67 306 3.0 3.0 0.00 0.00 0.00 34 1020.4
20260502190348 66 13 5.0 5.0 0.00 0.00 0.00 35 1020.3
20260502185844 66 8 6.0 8.0 0.00 0.00 0.00 35 1020.4
20260502185340 65 6 2.0 5.0 0.00 0.00 0.00 36 1020.3
20260502184837 66 16 4.0 5.0 0.00 0.00 0.00 36 1020.3
20260502184333 66 13 3.0 5.0 0.00 0.00 0.00 36 1020.4
20260502183829 65 25 2.0 2.0 0.00 0.00 0.00 37 1020.4
20260502183326 65 359 5.0 8.0 0.00 0.00 0.00 36 1020.7
20260502182821 65 7 6.0 8.0 0.00 0.00 0.00 37 1020.6
20260502182316 64 48 3.0 3.0 0.00 0.00 0.00 38 1020.7
20260502181813 64 339 6.0 9.0 0.00 0.00 0.00 38 1020.8
20260502181312 63 25 3.0 6.0 0.00 0.00 0.00 39 1020.9
20260502180809 63 47 4.0 6.0 0.00 0.00 0.00 39 1020.8
20260502180306 65 43 6.0 8.0 0.00 0.00 0.00 37 1020.9
20260502170220 64 103 1.0 1.0 0.00 0.00 0.00 39 1021.1
20260502164207 63 24 5.0 6.0 0.00 0.00 0.00 38 1021.2
20260502163702 62 127 1.0 2.0 0.00 0.00 0.00 39 1021.3
20260502163159 61 160 6.0 7.0 0.00 0.00 0.00 40 1021.2
20260502162656 63 229 2.0 3.0 0.00 0.00 0.00 38 1021.2
20260502162153 62 209 4.0 5.0 0.00 0.00 0.00 39 1021.2
20260502161650 62 303 2.0 2.0 0.00 0.00 0.00 39 1021.3
20260502161147 61 216 3.0 3.0 0.00 0.00 0.00 41 1021.3
20260502160645 60 321 4.0 6.0 0.00 0.00 0.00 41 1021.4
20260502160144 60 253 0.0 0.0 0.00 0.00 0.00 41 1021.5
20260502152057 57 348 7.0 7.0 0.00 0.00 0.00 43 1021.4
20260502151554 57 351 2.0 3.0 0.00 0.00 0.00 44 1021.2
20260502151052 58 13 3.0 5.0 0.00 0.00 0.00 44 1021.3
20260502150549 57 348 2.0 2.0 0.00 0.00 0.00 44 1021.3
20260502130434 50 16 3.0 3.0 0.00 0.00 0.00 54 1020.4
20260502123417 49 20 4.0 5.0 0.00 0.00 0.00 55 1020.1
20260502122914 49 29 5.0 6.0 0.00 0.00 0.00 54 1020.0
20260502122410 49 40 5.0 5.0 0.00 0.00 0.00 54 1019.9
20260502121909 49 12 3.0 3.0 0.00 0.00 0.00 54 1019.8
20260502121405 48 19 6.0 7.0 0.00 0.00 0.00 55 1019.8
20260502120903 48 350 3.0 3.0 0.00 0.00 0.00 54 1019.6
20260502120358 47 25 2.0 2.0 0.00 0.00 0.00 55 1019.6
20260502115856 45 341 3.0 3.0 0.00 0.00 0.00 58 1019.6
20260502115353 44 348 3.0 3.0 0.00 0.00 0.00 60 1019.8
20260502114849 45 350 0.0 0.0 0.00 0.00 0.00 58 1019.6
20260502114346 44 330 2.0 2.0 0.00 0.00 0.00 58 1019.2
20260502113843 45 325 2.0 2.0 0.00 0.00 0.00 58 1019.1
20260502113341 45 349 2.0 2.0 0.00 0.00 0.00 58 1019.1
20260502112839 44 346 2.0 3.0 0.00 0.00 0.00 59 1019.0
20260502112336 43 310 1.0 1.0 0.00 0.00 0.00 60 1019.1
20260502111834 44 310 0.0 1.0 0.00 0.00 0.00 60 1019.0
20260502111331 44 313 0.0 0.0 0.00 0.00 0.00 59 1018.7
20260502110828 44 326 1.0 1.0 0.00 0.00 0.00 58 1018.7
20260502110326 45 334 1.0 2.0 0.00 0.00 0.00 58 1018.7
20260502105823 46 331 2.0 2.0 0.00 0.00 0.00 56 1018.6
20260502105320 47 311 1.0 1.0 0.00 0.00 0.00 55 1018.5
20260502104818 47 341 2.0 3.0 0.00 0.00 0.00 55 1018.6
20260502104315 47 324 2.0 3.0 0.00 0.00 0.00 53 1018.6
20260502103812 48 348 4.0 5.0 0.00 0.00 0.00 53 1018.6
20260502103310 48 328 3.0 3.0 0.00 0.00 0.00 52 1018.3
20260502102807 48 344 4.0 5.0 0.00 0.00 0.00 51 1018.3
20260502102306 48 340 3.0 3.0 0.00 0.00 0.00 52 1018.0
20260502101801 48 322 2.0 3.0 0.00 0.00 0.00 53 1017.9
20260502101259 48 341 3.0 3.0 0.00 0.00 0.00 54 1017.9
20260502100757 48 340 3.0 3.0 0.00 0.00 0.00 52 1017.8
20260502100256 48 318 1.0 1.0 0.00 0.00 0.00 53 1017.8
20260502091229 47 350 2.0 2.0 0.00 0.00 0.00 52 1017.4
20260502090727 46 356 2.0 2.0 0.00 0.00 0.00 55 1017.3
20260502090223 47 359 2.0 2.0 0.00 0.00 0.00 53 1017.4
20260502071119 46 155 0.0 0.0 0.00 0.00 0.00 48 1016.8
20260502070617 45 155 0.0 0.0 0.00 0.00 0.00 52 1016.9
20260502070115 45 153 0.0 0.0 0.00 0.00 0.00 48 1016.7
20260502065613 46 152 0.0 0.0 0.00 0.00 0.00 47 1016.7
20260502065110 46 152 0.0 0.0 0.00 0.00 0.00 46 1016.8
20260502064609 44 152 0.0 0.0 0.00 0.00 0.00 46 1016.9
20260502064106 45 152 0.0 0.0 0.00 0.00 0.00 46 1016.8
20260502063603 45 152 0.0 0.0 0.00 0.00 0.00 45 1016.8
20260502063101 45 152 0.0 0.0 0.00 0.00 0.00 46 1016.9
20260502062558 46 152 0.0 0.0 0.00 0.00 0.00 44 1016.8
20260502062055 46 151 0.0 0.0 0.00 0.00 0.00 44 1016.9
20260502061553 47 145 1.0 1.0 0.00 0.00 0.00 42 1017.1
20260502061050 47 140 0.0 0.0 0.00 0.00 0.00 41 1017.1
20260502060545 46 124 3.0 3.0 0.00 0.00 0.00 42 1016.8
20260502060043 46 141 1.0 1.0 0.00 0.00 0.00 43 1016.8
20260502055540 47 137 3.0 3.0 0.00 0.00 0.00 42 1016.7
20260502055038 48 112 0.0 1.0 0.00 0.00 0.00 43 1016.6
20260502054537 48 66 0.0 0.0 0.00 0.00 0.00 43 1016.4
20260502054033 47 104 1.0 2.0 0.00 0.00 0.00 45 1016.5
20260502053530 47 247 1.0 1.0 0.00 0.00 0.00 46 1016.5
20260502053028 48 274 0.0 0.0 0.00 0.00 0.00 46 1016.3
20260502052527 49 278 0.0 0.0 0.00 0.00 0.00 46 1016.4
20260502052024 49 279 0.0 0.0 0.00 0.00 0.00 45 1016.3
20260502051522 50 280 0.0 0.0 0.00 0.00 0.00 44 1016.3
20260502051020 51 291 0.0 0.0 0.00 0.00 0.00 41 1016.1
20260502050515 52 296 0.0 0.0 0.00 0.00 0.00 40 1016.3
20260502050013 53 298 1.0 1.0 0.00 0.00 0.00 38 1016.1
20260502045509 53 297 2.0 2.0 0.00 0.00 0.00 38 1016.2
20260502045007 54 313 2.0 2.0 0.00 0.00 0.00 37 1016.0
20260502044503 54 322 2.0 2.0 0.00 0.00 0.00 36 1016.2
20260502043959 54 314 1.0 1.0 0.00 0.00 0.00 36 1016.2
20260502043457 54 323 2.0 2.0 0.00 0.00 0.00 36 1016.0
20260502042956 54 300 1.0 2.0 0.00 0.00 0.00 36 1016.2
20260502042454 53 284 0.0 0.0 0.00 0.00 0.00 37 1016.0
20260502041951 53 283 1.0 1.0 0.00 0.00 0.00 37 1016.2
20260502041449 53 284 1.0 2.0 0.00 0.00 0.00 37 1016.2
20260502040945 52 282 1.0 1.0 0.00 0.00 0.00 38 1016.1
20260502040442 52 281 0.0 0.0 0.00 0.00 0.00 38 1016.2
20260502035938 52 281 0.0 0.0 0.00 0.00 0.00 37 1016.0
20260502035434 53 281 0.0 0.0 0.00 0.00 0.00 36 1016.2
20260502034933 53 281 0.0 0.0 0.00 0.00 0.00 34 1016.2
20260502034431 52 281 0.0 0.0 0.00 0.00 0.00 37 1016.0
20260502033929 52 281 0.0 0.0 0.00 0.00 0.00 38 1016.0
20260502033426 53 281 0.0 0.0 0.00 0.00 0.00 36 1015.9
20260502032923 55 282 0.0 0.0 0.00 0.00 0.00 35 1015.9
20260502032419 55 284 0.0 0.0 0.00 0.00 0.00 34 1016.0
20260502031916 54 284 0.0 0.0 0.00 0.00 0.00 37 1015.9
20260502031415 55 294 0.0 0.0 0.00 0.00 0.00 37 1015.6
20260502030913 56 283 0.0 0.0 0.00 0.00 0.00 36 1015.5
20260502030411 56 283 0.0 0.0 0.00 0.00 0.00 35 1015.6
20260502025909 57 283 0.0 0.0 0.00 0.00 0.00 34 1015.5
20260502025405 57 284 0.0 0.0 0.00 0.00 0.00 33 1015.5
20260502024903 57 298 0.0 0.0 0.00 0.00 0.00 35 1015.5
20260502024401 58 279 0.0 0.0 0.00 0.00 0.00 34 1015.3
20260502023858 59 281 0.0 1.0 0.00 0.00 0.00 32 1015.2
20260502023355 60 298 2.0 2.0 0.00 0.00 0.00 30 1015.4
20260502022854 61 266 0.0 0.0 0.00 0.00 0.00 29 1015.3
20260502022349 62 265 0.0 0.0 0.00 0.00 0.00 27 1015.2
20260502021846 63 265 0.0 0.0 0.00 0.00 0.00 26 1015.2
20260502021344 64 265 0.0 0.0 0.00 0.00 0.00 26 1015.1
20260502020841 64 272 0.0 0.0 0.00 0.00 0.00 26 1015.2
20260502020339 66 272 0.0 0.0 0.00 0.00 0.00 26 1015.1
20260502015835 67 272 0.0 0.0 0.00 0.00 0.00 25 1015.1
20260502015332 68 272 0.0 0.0 0.00 0.00 0.00 25 1015.3
20260502014830 69 273 0.0 0.0 0.00 0.00 0.00 25 1015.1
20260502014327 70 273 0.0 0.0 0.00 0.00 0.00 22 1015.1
20260502013823 71 248 1.0 2.0 0.00 0.00 0.00 21 1015.2
20260502013318 73 244 0.0 0.0 0.00 0.00 0.00 22 1015.0
20260502012815 73 253 0.0 0.0 0.00 0.00 0.00 21 1015.1
20260502012313 74 261 0.0 0.0 0.00 0.00 0.00 23 1015.3
20260502011810 74 262 0.0 0.0 0.00 0.00 0.00 23 1015.3
20260502011306 74 266 0.0 0.0 0.00 0.00 0.00 21 1015.1
20260502010804 75 268 1.0 1.0 0.00 0.00 0.00 19 1015.3
20260502010300 75 329 2.0 3.0 0.00 0.00 0.00 18 1015.2